TimeCST,TemperatureF,Dew PointF,Humidity,Sea Level PressureIn,VisibilityMPH,Wind Direction,Wind SpeedMPH,Gust SpeedMPH,PrecipitationIn,Events,Conditions,WindDirDegrees,DateUTC
12:53 AM,27.0,25.0,92,30.06,5.0,Calm,Calm,-,N/A,,Clear,0,2014-03-07 06:53:00
1:53 AM,28.0,25.0,88,30.03,5.0,Calm,Calm,-,N/A,,Clear,0,2014-03-07 07:53:00
2:53 AM,27.0,24.1,89,30.02,5.0,Calm,Calm,-,N/A,,Clear,0,2014-03-07 08:53:00
3:53 AM,27.0,25.0,92,30.04,6.0,Calm,Calm,-,N/A,,Clear,0,2014-03-07 09:53:00
4:53 AM,26.1,23.0,88,30.05,5.0,Calm,Calm,-,N/A,,Clear,0,2014-03-07 10:53:00
5:13 AM,25.0,21.9,88,30.04,1.8,Calm,Calm,-,N/A,,Clear,0,2014-03-07 11:13:00
5:17 AM,25.0,21.9,88,30.04,0.8,Calm,Calm,-,N/A,,Clear,0,2014-03-07 11:17:00
5:26 AM,25.0,21.9,88,30.04,1.8,Calm,Calm,-,N/A,,Clear,0,2014-03-07 11:26:00
5:33 AM,25.0,23.0,92,30.04,2.5,Calm,Calm,-,N/A,,Clear,0,2014-03-07 11:33:00
5:42 AM,25.0,21.9,88,30.05,4.0,Calm,Calm,-,N/A,,Clear,0,2014-03-07 11:42:00
5:53 AM,25.0,21.9,88,30.06,5.0,Calm,Calm,-,N/A,,Clear,0,2014-03-07 11:53:00
6:19 AM,25.0,21.9,88,30.05,2.5,Calm,Calm,-,N/A,,Clear,0,2014-03-07 12:19:00
6:32 AM,26.1,25.0,96,30.05,3.0,Calm,Calm,-,N/A,,Clear,0,2014-03-07 12:32:00
6:53 AM,27.0,26.1,96,30.07,5.0,Calm,Calm,-,N/A,,Clear,0,2014-03-07 12:53:00
7:53 AM,30.9,27.0,85,30.09,4.0,Calm,Calm,-,N/A,,Clear,0,2014-03-07 13:53:00
8:53 AM,36.0,28.9,76,30.09,7.0,Calm,Calm,-,N/A,,Clear,0,2014-03-07 14:53:00
9:53 AM,41.0,28.9,62,30.07,9.0,Calm,Calm,-,N/A,,Clear,0,2014-03-07 15:53:00
10:53 AM,45.0,27.0,49,30.07,10.0,West,4.6,-,N/A,,Clear,260,2014-03-07 16:53:00
11:53 AM,46.9,28.0,48,30.06,10.0,West,3.5,-,N/A,,Clear,260,2014-03-07 17:53:00
12:53 PM,50.0,28.9,44,30.03,10.0,SSW,4.6,-,N/A,,Clear,200,2014-03-07 18:53:00
1:53 PM,52.0,30.9,45,30.02,10.0,SW,4.6,-,N/A,,Clear,230,2014-03-07 19:53:00
2:53 PM,53.1,35.1,50,30.01,10.0,SSW,8.1,-,N/A,,Clear,200,2014-03-07 20:53:00
3:53 PM,53.1,35.1,50,30.01,10.0,SSW,6.9,-,N/A,,Clear,200,2014-03-07 21:53:00
4:53 PM,51.1,34.0,52,30.00,10.0,SW,8.1,-,N/A,,Clear,230,2014-03-07 22:53:00
5:53 PM,48.0,35.1,61,30.01,8.0,SSW,4.6,-,N/A,,Clear,200,2014-03-07 23:53:00
6:53 PM,45.0,33.1,63,30.02,8.0,SSW,5.8,-,N/A,,Clear,210,2014-03-08 00:53:00
7:53 PM,39.9,32.0,73,30.02,7.0,Calm,Calm,-,N/A,,Clear,0,2014-03-08 01:53:00
8:53 PM,39.9,33.1,77,30.03,8.0,Calm,Calm,-,N/A,,Clear,0,2014-03-08 02:53:00
9:53 PM,35.1,30.0,82,30.04,4.0,Calm,Calm,-,N/A,,Haze,0,2014-03-08 03:53:00
10:53 PM,36.0,30.9,82,30.04,6.0,Calm,Calm,-,N/A,,Haze,0,2014-03-08 04:53:00
11:53 PM,33.1,30.0,89,30.04,4.0,Calm,Calm,-,N/A,,Clear,0,2014-03-08 05:53:00